KAITUO 1B
1 40912U 15049P   18071.02648453  .00000983  00000-0  50871-4 0  9999
2 40912  97.4521  79.7392 0015402 356.9893  66.9359 15.18501378136926
TIANWANG 1C (TW-1C)
1 40926U 15051B   18071.39318512  .00007329  00000-0  14485-3 0  9998
2 40926  97.1963 114.2287 0008436 273.0316 207.5592 15.47389611138339
TIANWANG 1B (TW-1B)
1 40927U 15051C   18071.52976815  .00007061  00000-0  14542-3 0  9997
2 40927  97.2047 114.2513 0008330 286.8086 179.2910 15.46200654138275
TIANWANG 1A (TW-1A)
1 40928U 15051D   18071.49003816  .00002996  00000-0  81899-4 0  9998
2 40928  97.1970 107.3648 0010956 318.9970 150.7698 15.38109015137915
LAPAN A2
1 40931U 15052B   18070.59122425  .00000830  00000-0  26489-4 0  9990
2 40931   5.9994 126.0431 0013806  64.6556 295.5662 14.76569585132559
LQSAT
1 40958U 15057A   18071.36740208  .00000013  00000-0  97250-5 0  9993
2 40958  97.9483 146.6004 0016813 289.7368  70.2021 14.73019695130596
CHUBUSAT 2
1 41338U 16012B   18071.55542563  .00000397  00000-0  24312-4 0  9996
2 41338  31.0026 207.5728 0013832 197.0516 162.9655 14.99933143113319
CHUBUSAT 3
1 41339U 16012C   18071.51481252  .00000400  00000-0  24454-4 0  9992
2 41339  31.0100 206.5670 0013453 203.9379 156.0643 15.00124351113295
OUFTI-1
1 41458U 16025C   18071.40308839  .00001304  00000-0  71557-4 0  9995
2 41458  98.1480 129.0447 0172672 111.9674 250.0002 15.04331600102886
E-STAR-2
1 41459U 16025D   18071.39345495  .00000994  00000-0  55865-4 0  9991
2 41459  98.1470 128.9119 0173480 112.5859 249.3846 15.04082461102874
AAUSAT 4
1 41460U 16025E   18071.39388348  .00001784  00000-0  95876-4 0  9991
2 41460  98.1417 129.2700 0165092 109.3879 252.5283 15.05392734102928
NUSAT 1
1 41557U 16033B   18071.19318764  .00001529  00000-0  58483-4 0  9990
2 41557  97.4406 155.5820 0015072 136.1663 224.0775 15.28062653 99341
BEESAT 4
1 41619U 16040W   18071.15925266  .00001498  00000-0  69000-4 0  9996
2 41619  97.4269 135.6091 0011088 202.9444 157.1298 15.21810778 83338
PRATHAM
1 41783U 16059A   18071.14982869  .00000054  00000-0  19889-4 0  9996
2 41783  98.1299 134.2198 0034410  42.2098 318.1743 14.62905209 77771
ALSAT 1N
1 41789U 16059G   18071.39367000  .00000048  00000-0  18374-4 0  9994
2 41789  98.1299 135.4870 0029269  34.8614 325.4503 14.64132489 77852
NAYIF 1
1 42017U 17008BX  18071.46450228  .00001560  00000-0  67136-4 0  9997
2 42017  97.4595 137.0619 0006602  15.1651 344.9783 15.24108749 59334
LILACSAT-1
1 42725U 98067ME  18071.37510199  .00019752  00000-0  20369-3 0  9999
2 42725  51.6369 130.2257 0003586 237.7054 122.3594 15.64807170 45332
MAX VALIER SAT
1 42778U 17036P   18070.76096999 +.00000969 +00000-0 +46606-4 0  9996
2 42778 097.4158 132.0418 0014030 056.3485 303.9087 15.21080432039695
